TimeEDT,TemperatureF,Dew PointF,Humidity,Sea Level PressureIn,VisibilityMPH,Wind Direction,Wind SpeedMPH,Gust SpeedMPH,PrecipitationIn,Events,Conditions,WindDirDegrees,DateUTC
12:15 AM,77.4,61.2,57,30.19,10.0,SW,6.9,-,N/A,,Clear,230,2013-08-26 04:15:00
12:34 AM,76.6,61.2,59,30.19,10.0,SW,6.9,-,N/A,,Clear,230,2013-08-26 04:34:00
12:55 AM,76.3,61.0,59,30.19,10.0,WSW,4.6,-,N/A,,Clear,240,2013-08-26 04:55:00
1:15 AM,75.7,61.0,60,30.19,10.0,SW,4.6,-,N/A,,Clear,220,2013-08-26 05:15:00
1:34 AM,75.4,60.8,60,30.18,10.0,SW,5.8,-,N/A,,Clear,220,2013-08-26 05:34:00
1:55 AM,75.2,60.4,60,30.17,10.0,SW,5.8,-,N/A,,Clear,230,2013-08-26 05:55:00
2:14 AM,74.7,60.4,61,30.15,10.0,SW,5.8,-,N/A,,Clear,230,2013-08-26 06:14:00
2:35 AM,74.3,60.3,61,30.15,10.0,SW,8.1,-,N/A,,Clear,220,2013-08-26 06:35:00
2:55 AM,74.3,60.4,62,30.15,10.0,SW,5.8,-,N/A,,Clear,230,2013-08-26 06:55:00
3:14 AM,73.8,60.4,63,30.15,10.0,SW,5.8,-,N/A,,Clear,220,2013-08-26 07:14:00
3:35 AM,73.4,60.4,64,30.15,10.0,SW,5.8,-,N/A,,Clear,220,2013-08-26 07:35:00
3:55 AM,73.0,60.4,65,30.16,10.0,SW,4.6,-,N/A,,Clear,230,2013-08-26 07:55:00
4:14 AM,72.7,60.4,65,30.16,10.0,SW,5.8,-,N/A,,Clear,230,2013-08-26 08:14:00
4:35 AM,72.5,60.4,66,30.15,10.0,SW,6.9,-,N/A,,Clear,230,2013-08-26 08:35:00
4:55 AM,72.0,60.4,67,30.15,10.0,WSW,6.9,-,N/A,,Clear,240,2013-08-26 08:55:00
5:14 AM,71.8,60.3,67,30.15,10.0,WSW,6.9,-,N/A,,Clear,240,2013-08-26 09:14:00
5:35 AM,71.2,60.3,68,30.15,10.0,SW,6.9,-,N/A,,Clear,230,2013-08-26 09:35:00
5:54 AM,70.7,60.4,70,30.15,10.0,SW,6.9,-,N/A,,Clear,230,2013-08-26 09:54:00
6:15 AM,70.5,60.4,70,30.15,10.0,WSW,5.8,-,N/A,,Clear,240,2013-08-26 10:15:00
6:35 AM,70.3,60.1,70,30.16,10.0,SW,5.8,-,N/A,,Clear,230,2013-08-26 10:35:00
6:54 AM,70.2,60.1,70,30.16,10.0,SW,5.8,-,N/A,,Clear,230,2013-08-26 10:54:00
7:15 AM,70.0,60.1,71,30.17,10.0,WSW,4.6,-,N/A,,Clear,240,2013-08-26 11:15:00
7:35 AM,70.5,60.1,69,30.17,10.0,WSW,5.8,-,N/A,,Clear,240,2013-08-26 11:35:00
7:54 AM,71.6,60.1,67,30.16,10.0,WSW,5.8,-,N/A,,Clear,240,2013-08-26 11:54:00
8:15 AM,72.9,60.1,64,30.16,10.0,WSW,6.9,-,N/A,,Clear,240,2013-08-26 12:15:00
8:35 AM,74.5,60.4,61,30.15,10.0,WSW,8.1,-,N/A,,Clear,240,2013-08-26 12:35:00
8:54 AM,77.0,60.3,56,30.14,10.0,West,11.5,16.1,N/A,,Clear,260,2013-08-26 12:54:00
9:15 AM,78.4,60.8,55,30.13,10.0,WSW,8.1,-,N/A,,Clear,250,2013-08-26 13:15:00
9:34 AM,79.3,60.8,53,30.14,10.0,WSW,9.2,-,N/A,,Clear,250,2013-08-26 13:34:00
9:55 AM,79.2,61.0,54,30.14,10.0,West,10.4,16.1,N/A,,Clear,260,2013-08-26 13:55:00
10:15 AM,79.9,61.2,53,30.15,10.0,West,6.9,18.4,N/A,,Clear,260,2013-08-26 14:15:00
10:34 AM,82.0,61.0,49,30.14,10.0,West,10.4,18.4,N/A,,Clear,260,2013-08-26 14:34:00
10:55 AM,82.4,60.8,48,30.13,10.0,West,12.7,18.4,N/A,,Clear,260,2013-08-26 14:55:00
11:15 AM,83.3,61.0,47,30.13,10.0,West,10.4,17.3,N/A,,Clear,260,2013-08-26 15:15:00
11:34 AM,83.8,61.2,46,30.13,10.0,WSW,9.2,17.3,N/A,,Scattered Clouds,240,2013-08-26 15:34:00
11:55 AM,85.3,61.3,44,30.13,10.0,West,11.5,-,N/A,,Scattered Clouds,280,2013-08-26 15:55:00
12:14 PM,85.1,61.5,45,30.13,10.0,WNW,9.2,16.1,N/A,,Clear,290,2013-08-26 16:14:00
12:35 PM,84.7,62.2,47,30.13,10.0,WNW,10.4,-,N/A,,Clear,290,2013-08-26 16:35:00
12:55 PM,85.3,62.4,46,30.10,10.0,West,10.4,-,N/A,,Clear,270,2013-08-26 16:55:00
1:14 PM,85.3,62.6,46,30.10,10.0,West,9.2,-,N/A,,Clear,270,2013-08-26 17:14:00
1:35 PM,86.9,62.8,44,30.07,10.0,SW,10.4,17.3,N/A,,Clear,230,2013-08-26 17:35:00
1:55 PM,86.4,63.0,45,30.06,10.0,WSW,8.1,-,N/A,,Clear,240,2013-08-26 17:55:00
2:14 PM,86.7,63.3,45,30.04,10.0,SW,9.2,-,N/A,,Clear,230,2013-08-26 18:14:00
2:35 PM,86.9,63.7,46,30.05,10.0,WSW,12.7,17.3,N/A,,Clear,250,2013-08-26 18:35:00
2:55 PM,88.7,64.2,44,30.05,10.0,WSW,13.8,17.3,N/A,,Clear,250,2013-08-26 18:55:00
3:14 PM,89.6,64.6,43,30.03,10.0,SW,13.8,17.3,N/A,,Clear,230,2013-08-26 19:14:00
3:35 PM,90.5,64.9,43,30.03,10.0,WSW,11.5,-,N/A,,Clear,250,2013-08-26 19:35:00
3:55 PM,89.6,65.7,45,30.02,10.0,WSW,12.7,18.4,N/A,,Scattered Clouds,240,2013-08-26 19:55:00
4:15 PM,90.0,65.5,44,30.03,10.0,West,15.0,18.4,N/A,,Mostly Cloudy,270,2013-08-26 20:15:00
4:35 PM,89.8,66.6,46,30.03,10.0,WNW,8.1,18.4,N/A,,Scattered Clouds,300,2013-08-26 20:35:00
4:54 PM,88.3,67.1,49,30.02,10.0,WNW,8.1,-,N/A,,Mostly Cloudy,290,2013-08-26 20:54:00
5:15 PM,88.9,67.3,49,30.02,10.0,West,4.6,-,N/A,,Mostly Cloudy,270,2013-08-26 21:15:00
5:34 PM,88.7,67.3,49,30.01,10.0,West,9.2,-,N/A,,Overcast,280,2013-08-26 21:34:00
5:55 PM,89.4,67.6,48,30.01,10.0,WSW,12.7,18.4,N/A,,Mostly Cloudy,250,2013-08-26 21:55:00
6:15 PM,88.2,68.0,51,30.02,10.0,West,9.2,17.3,N/A,,Scattered Clouds,270,2013-08-26 22:15:00
6:34 PM,87.8,68.0,52,30.01,10.0,West,15.0,20.7,N/A,,Scattered Clouds,270,2013-08-26 22:34:00
6:55 PM,87.1,68.4,54,30.01,10.0,West,8.1,18.4,N/A,,Scattered Clouds,260,2013-08-26 22:55:00
7:15 PM,86.4,68.9,56,30.01,10.0,WSW,6.9,-,N/A,,Scattered Clouds,250,2013-08-26 23:15:00
7:34 PM,86.0,69.1,57,30.01,10.0,West,9.2,-,N/A,,Mostly Cloudy,260,2013-08-26 23:34:00
7:55 PM,85.5,68.9,57,30.01,10.0,West,9.2,-,N/A,,Mostly Cloudy,260,2013-08-26 23:55:00
8:15 PM,84.4,69.8,61,30.02,10.0,West,6.9,-,N/A,,Mostly Cloudy,270,2013-08-27 00:15:00
8:34 PM,83.5,70.2,64,30.02,10.0,West,6.9,-,N/A,,Mostly Cloudy,260,2013-08-27 00:34:00
8:55 PM,83.3,70.7,66,30.03,10.0,West,4.6,-,N/A,,Overcast,260,2013-08-27 00:55:00
9:14 PM,82.8,70.7,67,30.03,10.0,West,5.8,-,N/A,,Overcast,270,2013-08-27 01:14:00
9:35 PM,82.4,70.9,68,30.03,10.0,West,6.9,-,N/A,,Overcast,270,2013-08-27 01:35:00
9:55 PM,81.9,70.7,69,30.03,10.0,West,8.1,-,N/A,,Overcast,260,2013-08-27 01:55:00
10:14 PM,81.7,69.8,67,30.03,10.0,West,8.1,-,N/A,,Overcast,280,2013-08-27 02:14:00
10:35 PM,81.5,69.3,66,30.02,10.0,West,8.1,-,N/A,,Overcast,260,2013-08-27 02:35:00
10:55 PM,81.0,68.9,67,30.02,10.0,West,6.9,-,N/A,,Mostly Cloudy,270,2013-08-27 02:55:00
11:14 PM,80.6,68.9,67,30.03,10.0,West,9.2,-,N/A,,Mostly Cloudy,270,2013-08-27 03:14:00
11:35 PM,80.8,68.2,65,30.02,10.0,WNW,8.1,-,N/A,,Overcast,290,2013-08-27 03:35:00
11:55 PM,81.0,68.0,65,30.02,10.0,WNW,6.9,-,N/A,,Mostly Cloudy,290,2013-08-27 03:55:00